EN

Hourly Weather Bulungu

Today, 16 April, Friday

Time Temperature Precipitation Wind Pressure Humidity
00:00 -6°C° 0 mm 3 mps 566 mmHg 79%
01:00 -6°C° 0 mm 3 mps 566 mmHg 77%
02:00 -6°C° 0 mm 3 mps 566 mmHg 75%
03:00 -6°C° 0 mm 3 mps 566 mmHg 74%
04:00 -6°C° 0 mm 3 mps 566 mmHg 72%
05:00 -6°C° 0 mm 3 mps 566 mmHg 70%
06:00 -6°C° 0 mm 3 mps 566 mmHg 68%
07:00 -3°C° 0 mm 2 mps 567 mmHg 66%
08:00 -1°C° 0 mm 2 mps 567 mmHg 63%
09:00 +2°C° 0 mm 2 mps 568 mmHg 61%
10:00 +3°C° 0 mm 2 mps 568 mmHg 63%
11:00 +3°C° 0 mm 2 mps 568 mmHg 66%
12:00 +3°C° 0 mm 3 mps 568 mmHg 68%
13:00 +3°C° 0.1 mm 3 mps 568 mmHg 69%
14:00 +3°C° 0.1 mm 3 mps 568 mmHg 69%
15:00 +3°C° 0.1 mm 3 mps 568 mmHg 70%
16:00 +2°C° 0.1 mm 3 mps 568 mmHg 72%
17:00 +2°C° 0.1 mm 3 mps 568 mmHg 75%
18:00 +1°C° 0.1 mm 3 mps 568 mmHg 77%
19:00 0°C° 0 mm 3 mps 568 mmHg 78%
20:00 -1°C° 0 mm 3 mps 568 mmHg 78%
21:00 -2°C° 0 mm 3 mps 568 mmHg 78%
22:00 -2°C° 0 mm 3 mps 568 mmHg 76%
23:00 -2°C° 0 mm 3 mps 568 mmHg 75%

Tomorrow, 17 April, Saturday

Time Temperature Precipitation Wind Pressure Humidity
00:00 -3°C° 0 mm 4 mps 568 mmHg 74%
01:00 -3°C° 0.1 mm 4 mps 568 mmHg 75%
02:00 -3°C° 0.1 mm 4 mps 567 mmHg 76%
03:00 -3°C° 0.1 mm 4 mps 567 mmHg 77%
04:00 -2°C° 0.2 mm 4 mps 567 mmHg 77%
05:00 -2°C° 0.2 mm 4 mps 567 mmHg 78%
06:00 -1°C° 0.2 mm 3 mps 567 mmHg 78%
07:00 0°C° 0.1 mm 3 mps 568 mmHg 80%
08:00 +1°C° 0.1 mm 3 mps 568 mmHg 81%
09:00 +3°C° 0.1 mm 2 mps 569 mmHg 82%
10:00 +3°C° 0.2 mm 2 mps 569 mmHg 86%
11:00 +2°C° 0.2 mm 3 mps 569 mmHg 89%
12:00 +2°C° 0.2 mm 3 mps 569 mmHg 92%
13:00 +2°C° 0.4 mm 3 mps 569 mmHg 93%
14:00 +3°C° 0.4 mm 2 mps 569 mmHg 94%
15:00 +2°C° 0.4 mm 2 mps 568 mmHg 95%
16:00 +2°C° 0.2 mm 2 mps 569 mmHg 95%
17:00 +2°C° 0.2 mm 2 mps 569 mmHg 95%
18:00 +2°C° 0.2 mm 2 mps 569 mmHg 95%
19:00 +1°C° 0 mm 3 mps 569 mmHg 94%
20:00 +1°C° 0 mm 3 mps 568 mmHg 93%
21:00 +1°C° 0 mm 3 mps 568 mmHg 92%
22:00 +1°C° 0.1 mm 3 mps 568 mmHg 92%
23:00 0°C° 0.1 mm 3 mps 568 mmHg 92%

Day after tomorrow, 18 April, Sunday

Time Temperature Precipitation Wind Pressure Humidity
00:00 0°C° 0.1 mm 3 mps 568 mmHg 91%
01:00 0°C° 0.5 mm 3 mps 568 mmHg 91%
02:00 0°C° 0.5 mm 3 mps 567 mmHg 92%
03:00 +1°C° 0.5 mm 2 mps 567 mmHg 92%
04:00 +1°C° 0.2 mm 2 mps 567 mmHg 91%
05:00 0°C° 0.2 mm 3 mps 567 mmHg 91%
06:00 0°C° 0.2 mm 3 mps 567 mmHg 90%
07:00 +1°C° 0 mm 3 mps 567 mmHg 88%
08:00 +2°C° 0 mm 3 mps 568 mmHg 87%
09:00 +3°C° 0 mm 3 mps 568 mmHg 85%
10:00 +4°C° 0 mm 3 mps 568 mmHg 83%
11:00 +5°C° 0 mm 3 mps 569 mmHg 80%
12:00 +6°C° 0 mm 4 mps 569 mmHg 78%
13:00 +5°C° 0.7 mm 4 mps 569 mmHg 80%
14:00 +5°C° 0.7 mm 3 mps 569 mmHg 83%
15:00 +5°C° 0.7 mm 3 mps 569 mmHg 85%
16:00 +4°C° 0.4 mm 3 mps 569 mmHg 85%
17:00 +4°C° 0.4 mm 3 mps 569 mmHg 85%
18:00 +4°C° 0.4 mm 3 mps 569 mmHg 85%
19:00 +3°C° 0.1 mm 3 mps 569 mmHg 85%
20:00 +2°C° 0.1 mm 3 mps 568 mmHg 85%
21:00 +2°C° 0.1 mm 3 mps 568 mmHg 85%
22:00 +2°C° 0 mm 3 mps 568 mmHg 83%
23:00 +1°C° 0 mm 3 mps 568 mmHg 82%

19 April, Monday

Time Temperature Precipitation Wind Pressure Humidity
00:00 +1°C° 0 mm 3 mps 568 mmHg 81%
01:00 +1°C° 0 mm 3 mps 568 mmHg 80%
02:00 +1°C° 0 mm 3 mps 568 mmHg 80%
03:00 +1°C° 0 mm 3 mps 568 mmHg 79%
04:00 +1°C° 0 mm 3 mps 568 mmHg 77%
05:00 +1°C° 0 mm 3 mps 568 mmHg 75%
06:00 0°C° 0 mm 3 mps 568 mmHg 72%
07:00 +2°C° 0 mm 3 mps 569 mmHg 71%
08:00 +4°C° 0 mm 3 mps 569 mmHg 71%
09:00 +7°C° 0 mm 2 mps 570 mmHg 70%
10:00 +7°C° 0 mm 3 mps 570 mmHg 71%
11:00 +7°C° 0 mm 3 mps 570 mmHg 72%
12:00 +7°C° 0 mm 4 mps 570 mmHg 74%
13:00 +7°C° 0.1 mm 4 mps 570 mmHg 75%
14:00 +7°C° 0.1 mm 4 mps 570 mmHg 76%
15:00 +7°C° 0.1 mm 4 mps 569 mmHg 76%
16:00 +6°C° 0.1 mm 4 mps 569 mmHg 79%
17:00 +6°C° 0.1 mm 4 mps 569 mmHg 81%
18:00 +5°C° 0.1 mm 4 mps 569 mmHg 83%
19:00 +5°C° 0 mm 4 mps 569 mmHg 83%
20:00 +5°C° 0 mm 5 mps 568 mmHg 82%
21:00 +3°C° 0 mm 5 mps 568 mmHg 82%
22:00 +3°C° 0 mm 5 mps 568 mmHg 80%
23:00 +3°C° 0 mm 5 mps 567 mmHg 79%

20 April, Tuesday

Time Temperature Precipitation Wind Pressure Humidity
00:00 +3°C° 0 mm 5 mps 567 mmHg 77%
01:00 +3°C° 0.1 mm 5 mps 567 mmHg 77%
02:00 +3°C° 0.1 mm 5 mps 567 mmHg 76%
03:00 +3°C° 0.1 mm 5 mps 566 mmHg 76%
04:00 +3°C° 0 mm 5 mps 566 mmHg 74%
05:00 +4°C° 0 mm 6 mps 566 mmHg 72%
06:00 +4°C° 0 mm 6 mps 565 mmHg 70%
07:00 +6°C° 0 mm 5 mps 566 mmHg 70%
08:00 +7°C° 0 mm 5 mps 566 mmHg 70%
09:00 +8°C° 0 mm 5 mps 566 mmHg 71%
10:00 +8°C° 0.8 mm 5 mps 566 mmHg 73%
11:00 +8°C° 0.8 mm 4 mps 566 mmHg 75%
12:00 +8°C° 0.8 mm 4 mps 566 mmHg 77%
13:00 +7°C° 0.3 mm 4 mps 566 mmHg 80%
14:00 +7°C° 0.3 mm 4 mps 566 mmHg 83%
15:00 +7°C° 0.3 mm 3 mps 566 mmHg 86%
16:00 +5°C° 0.6 mm 3 mps 566 mmHg 90%
17:00 +4°C° 0.6 mm 3 mps 566 mmHg 94%
18:00 +3°C° 0.6 mm 3 mps 566 mmHg 97%
19:00 +3°C° 0.5 mm 2 mps 566 mmHg 97%
20:00 +3°C° 0.5 mm 2 mps 566 mmHg 97%
21:00 +2°C° 0.5 mm 2 mps 566 mmHg 97%
22:00 +2°C° 0.3 mm 2 mps 566 mmHg 97%
23:00 +2°C° 0.3 mm 2 mps 566 mmHg 97%

21 April, Wednesday

Time Temperature Precipitation Wind Pressure Humidity
00:00 +2°C° 0.3 mm 2 mps 566 mmHg 97%
01:00 +1°C° 0.2 mm 2 mps 566 mmHg 97%
02:00 +1°C° 0.2 mm 2 mps 566 mmHg 97%
03:00 +1°C° 0.2 mm 2 mps 566 mmHg 97%
04:00 +1°C° 0.1 mm 2 mps 566 mmHg 97%
05:00 -1°C° 0.1 mm 2 mps 566 mmHg 97%
06:00 -1°C° 0.1 mm 2 mps 566 mmHg 97%
07:00 -1°C° 0.1 mm 2 mps 566 mmHg 96%
08:00 +1°C° 0.1 mm 2 mps 566 mmHg 96%
09:00 +1°C° 0.1 mm 2 mps 566 mmHg 96%
10:00 +2°C° 0.2 mm 2 mps 566 mmHg 93%
11:00 +2°C° 0.2 mm 2 mps 567 mmHg 90%
12:00 +2°C° 0.2 mm 2 mps 567 mmHg 88%
13:00 +2°C° 0.3 mm 2 mps 567 mmHg 87%
14:00 +3°C° 0.3 mm 2 mps 567 mmHg 86%
15:00 +3°C° 0.3 mm 2 mps 567 mmHg 86%
16:00 +3°C° 0.1 mm 1 mps 567 mmHg 88%
17:00 +3°C° 0.1 mm 1 mps 567 mmHg 89%
18:00 +2°C° 0.1 mm 1 mps 567 mmHg 91%
19:00 +2°C° 0 mm 1 mps 567 mmHg 91%
20:00 +1°C° 0 mm 1 mps 568 mmHg 91%
21:00 0°C° 0 mm 1 mps 568 mmHg 92%
22:00 0°C° 0 mm 1 mps 568 mmHg 88%
23:00 -1°C° 0 mm 1 mps 568 mmHg 85%
Show more

We Need Your Consent

Meteoprog and our Service Providers may store and access personal data such as cookies, device identifiers or other similar technologies on your device and process such data to personalise content and ads, as well as provide social media features and to analyse the traffic.

  • Store and/or access information on your device

    Cookies, device identifiers or other information can be stored or accessed on your device for the purposes indicated above.

  • Personalised ads and content, ad and content measurement, audience insights, and products development

    Ads and content can be personalised based on a profile. More data can be added to better personalise ads and content. Ad and content performance can be measured. Insights about the audience who saw the ads and content can be derived. Such data can be used to develop or improve user’s experience, systems and software.

By clicking ‘I Agree’ you will allow the use of indicated cookies, device identifiers, web beacons or other similar technologies. Your settings can be changed in the browser on your device.

For certain purposes, legitimate interests may be relied on, rather than consent. You can read more about this in our Privacy and Cookie Policy.